Regional Weather Roundup
Issued by NWS

Home | Current Version | Previous Version | Text Only | Print | Product List | Glossary On
Versions: 1 2 3 4 5 6 7 8 9 10 11 12 13 14 15 16 17 18 19 20 21 22 23 24 25 26 27 28 29 30 31 32 33 34 35 36 37 38 39 40 41 42 43 44 45 46 47 48 49 50
000
ASUS43 KLOT 290209
RWRIL

ILLINOIS REGIONAL WEATHER ROUNDUP
NATIONAL WEATHER SERVICE CHICAGO/ROMEOVILLE IL
900 PM CDT SUN MAY 28 2017

NOTE: "FAIR" INDICATES FEW OR NO CLOUDS BELOW 12,000 FEET WITH NO
SIGNIFICANT WEATHER AND/OR OBSTRUCTIONS TO VISIBILITY.

* THESE STATIONS ARE NOT UNDER NWS QUALITY CONTROL. THEY ALSO MAY NOT
  REPORT WEATHER SUCH AS PRECIPITATION OR FOG.

ILZ001-002-007-009-015-016-024-290300-
NORTHWEST ILLINOIS

CITY           SKY/WX    TMP DP  RH WIND       PRES   REMARKS
MOLINE         CLEAR     70  50  49 SW3       29.77F
STERLING*      MOCLDY    64  57  78 CALM      29.77S
SAVANNA*       MOCLDY    70  51  50 SW3       29.76F
$$

ILZ003-004-008-010-011-017-018-290300-
NORTH CENTRAL ILLINOIS

CITY           SKY/WX    TMP DP  RH WIND       PRES   REMARKS
ROCKFORD       PTCLDY    67  48  50 W5        29.77S
FREEPORT*      PTCLDY    60  49  65 SW3       29.78S
ROCHELLE*      MOCLDY    65  52  62 W5        29.78R
DE KALB*       CLEAR     64  49  58 W5        29.78S
PERU*          CLEAR     66  48  53 W8        29.79R
$$

ILZ005-006-012>014-019>023-290300-
NORTHEAST ILLINOIS

CITY           SKY/WX    TMP DP  RH WIND       PRES   REMARKS
CHICAGO-OHARE  PTCLDY    70  47  43 W8        29.75R
CHICAGO-MIDWAY PTCLDY    72  50  45 W6        29.76R
AURORA         CLEAR     64  53  67 W6        29.77R
LANSING*       PTCLDY    68  57  68 W6        29.77R
JOLIET*        CLEAR     71  51  49 CALM      29.78R
WAUKEGAN       CLEAR     69  45  41 VRB3      29.73R
DUPAGE AIRPORT CLEAR     67  50  54 W5        29.76R
KANKAKEE*      CLEAR     69  53  56 CALM      29.79S
WHEELING       CLEAR     70  46  42 W7        29.76R
MORRIS*        CLEAR     68  50  51 CALM      29.76S
ROMEOVILLE*    CLEAR     68  52  57 W6        29.77S
NORTHERLY ISL    N/A     72  44  36 W5          N/A
$$

LMZ740>746-290300-
SOUTHERN LAKE MICHIGAN

STATION/POSITION SKY/WX   TEMP    WIND        PRES    VSBY  WAVE
                          AIR SEA DIR/SP/G                  HT/PER
                          (F)     (DEG/KT/KT) (MB)    (MI)  (FT/S)
SOUTHERN BUOY              52 50  190/ 10/ 10 1006.6          0
WILMETTE HARBOR            64 55  280/  8/ 12   N/A           1
HARRISON CRIB              68     310/  5/  6   N/A
BURNHAM HARBOR             72     260/  8/ 14   N/A
CALUMET HARBOR             73     250/  5/ 12 1007.1R
BURNS HARBOR               65     190/  4/  4 1008.1S
MICHIGAN CITY              66     150/  4/  4   N/A
MICHIGAN CITY 6N           60 58  160/  4/  6   N/A           1
ST. JOSEPH                 60 60  210/  4/  6 1007.7          1
$$

ILZ025>027-034>036-040-047-049-050-058-095>099-290300-
WEST-CENTRAL ILLINOIS

CITY           SKY/WX    TMP DP  RH WIND       PRES   REMARKS
QUINCY         CLEAR     66  53  63 SW5       29.84S
GALESBURG*     PTCLDY    67  51  56 SW3       29.80S
MACOMB*        PTCLDY    66  52  59 SW6       29.83F
JACKSONVILLE*  PTCLDY    63  58  83 S5        29.84S
PITTSFIELD*    CLEAR     71  58  62 CALM      29.86R
$$

ILZ028>032-037-038-041>044-048-051>054-059>061-290300-
CENTRAL ILLINOIS

CITY           SKY/WX    TMP DP  RH WIND       PRES   REMARKS
PONTIAC        CLEAR     69  53  56 W8        29.80S
BLOOMINGTON    CLEAR     69  52  54 W10       29.83R
DECATUR        PTCLDY    71  52  50 W5        29.82S
PEORIA         CLEAR     69  47  45 CALM      29.81S
LACON*         CLEAR     65  50  58 CALM      29.79R
LINCOLN*       PTCLDY    74  54  49 W3        29.82R
SPRINGFIELD    MOCLDY    67  58  72 SW3       29.84R
TAYLORVILLE    CLOUDY    72  55  56 NW5       29.85R
$$

ILZ033-039-045-046-055>057-062-063-290300-
EAST-CENTRAL ILLINOIS

CITY           SKY/WX    TMP DP  RH WIND       PRES   REMARKS
CHAMPAIGN      PTCLDY    66  55  67 SW5       29.82R
RANTOUL*       MOCLDY    72  55  54 W5        29.81R
MATTOON        CLEAR     69  53  56 W3        29.82S
PARIS*         CLEAR     68  55  62 W7        29.82S
$$

ILZ079-100>102-290300-
SOUTHWEST ILLINOIS

CITY           SKY/WX    TMP DP  RH WIND       PRES   REMARKS
ALTON          CLEAR     66  57  72 W6        29.86S
BELLEVILLE     CLEAR     69  58  68 SW3       29.87S
CAHOKIA*       CLEAR     72  54  53 SW3       29.86S
SPARTA*        CLEAR     70  59  66 CALM      29.89S
$$

ILZ064>066-069>071-074>076-080>082-084>086-088>090-092>094-290300-
SOUTH-CENTRAL ILLINOIS

CITY           SKY/WX    TMP DP  RH WIND       PRES   REMARKS
CARBONDALE     CLEAR     67  63  87 W7        29.90R
CAIRO*         CLEAR     71  68  90 SW3       29.91R
EFFINGHAM*     CLEAR     65  58  78 CALM      29.86R
MARION         PTCLDY    68  68 100 CALM      29.90R
MT. VERNON       N/A     65  61  87 SW3       29.87R
CENTRALIA*     CLEAR     69  60  74 W3        29.85S
SALEM*         CLEAR     71  56  58 SW3       29.86S
METROPOLIS*    CLEAR     68  67  97 CALM      29.91R
$$

ILZ067-068-072-073-078-083-087-091-290300-
SOUTHEAST ILLINOIS

CITY           SKY/WX    TMP DP  RH WIND       PRES   REMARKS
LAWRENCEVILLE  CLEAR     71  64  78 W8        29.84R
FLORA*         CLEAR     71  60  69 SW6       29.86R
FAIRFIELD*     CLEAR     69  62  80 CALM      29.85S
HARRISBURG*    PTCLDY    69  64  85 SW5       29.90R
ROBINSON*      CLEAR     68  64  85 SW6       29.84S
CARMI*         CLEAR     69  64  83 SW6       29.87R
$$

ABBREVIATIONS USED IN REMARKS
   TC - TEMPERATURE IN CELSIUS
  WCI - WIND CHILL INDEX
   HX - HEAT INDEX
  VSB - VISIBILITY
$$





USA.gov is the U.S. government's official web portal to all federal, state and local government web resources and services.